Time,TemperatureF,DewpointF,PressureIn,WindDirection,WindDirectionDegrees,WindSpeedMPH,WindSpeedGustMPH,Humidity,HourlyPrecipIn,Conditions,Clouds,dailyrainin,SoftwareType,DateUTC
2013-08-26 00:02:00,50.8,50.8,29.93,WNW,296,0.0,4.0,100,0.00,,,0.00,Wunderground v.1.15,2013-08-26 07:02:00,
2013-08-26 00:08:00,51.1,51.1,29.93,WNW,296,1.0,4.0,100,0.00,,,0.00,Wunderground v.1.15,2013-08-26 07:08:00,
2013-08-26 00:14:00,51.1,51.1,29.93,WNW,296,2.0,2.0,100,0.00,,,0.00,Wunderground v.1.15,2013-08-26 07:14:00,
2013-08-26 00:20:00,50.8,50.8,29.93,WNW,296,2.0,2.0,100,0.00,,,0.00,Wunderground v.1.15,2013-08-26 07:20:00,
2013-08-26 00:26:00,50.4,50.4,29.93,WNW,296,2.0,3.0,100,0.00,,,0.00,Wunderground v.1.15,2013-08-26 07:26:00,
2013-08-26 00:31:00,50.3,50.3,29.93,WNW,296,2.0,3.0,100,0.00,,,0.00,Wunderground v.1.15,2013-08-26 07:31:00,
2013-08-26 00:37:00,50.1,50.1,29.93,WNW,296,3.0,5.0,100,0.00,,,0.00,Wunderground v.1.15,2013-08-26 07:37:00,
2013-08-26 00:43:00,50.1,50.1,29.93,WNW,296,3.0,4.0,100,0.00,,,0.00,Wunderground v.1.15,2013-08-26 07:43:00,
2013-08-26 00:49:00,50.0,50.0,29.93,WNW,296,3.0,4.0,100,0.00,,,0.00,Wunderground v.1.15,2013-08-26 07:49:00,
2013-08-26 00:55:00,49.8,49.8,29.93,WNW,296,3.0,5.0,100,0.00,,,0.00,Wunderground v.1.15,2013-08-26 07:55:00,
2013-08-26 01:01:00,49.9,49.9,29.93,WNW,296,2.0,2.0,100,0.00,,,0.00,Wunderground v.1.15,2013-08-26 08:01:00,
2013-08-26 01:07:00,49.8,49.8,29.93,WNW,296,2.0,4.0,100,0.00,,,0.00,Wunderground v.1.15,2013-08-26 08:07:00,
2013-08-26 01:13:00,49.7,49.7,29.93,WNW,296,1.0,3.0,100,0.00,,,0.00,Wunderground v.1.15,2013-08-26 08:13:00,
2013-08-26 01:18:00,49.7,49.7,29.93,WNW,296,1.0,3.0,100,0.00,,,0.00,Wunderground v.1.15,2013-08-26 08:18:00,
2013-08-26 01:24:00,49.7,49.7,29.93,WNW,296,1.0,2.0,100,0.00,,,0.00,Wunderground v.1.15,2013-08-26 08:24:00,
2013-08-26 01:30:00,49.7,49.7,29.93,WNW,296,1.0,2.0,100,0.00,,,0.00,Wunderground v.1.15,2013-08-26 08:30:00,
2013-08-26 01:36:00,49.8,49.8,29.93,WNW,296,1.0,3.0,100,0.00,,,0.00,Wunderground v.1.15,2013-08-26 08:36:00,
2013-08-26 01:41:00,49.7,49.7,29.93,WNW,296,1.0,2.0,100,0.00,,,0.00,Wunderground v.1.15,2013-08-26 08:41:00,
2013-08-26 01:47:00,49.7,49.7,29.93,WNW,296,1.0,2.0,100,0.00,,,0.00,Wunderground v.1.15,2013-08-26 08:47:00,
2013-08-26 01:53:00,49.5,49.5,29.93,WNW,296,1.0,2.0,100,0.00,,,0.00,Wunderground v.1.15,2013-08-26 08:53:00,
2013-08-26 01:59:00,49.5,49.5,29.93,WNW,296,0.0,2.0,100,0.00,,,0.00,Wunderground v.1.15,2013-08-26 08:59:00,
2013-08-26 02:05:00,49.4,49.4,29.93,WNW,296,1.0,2.0,100,0.00,,,0.00,Wunderground v.1.15,2013-08-26 09:05:00,
2013-08-26 02:11:00,49.4,49.4,29.93,WNW,296,1.0,2.0,100,0.00,,,0.00,Wunderground v.1.15,2013-08-26 09:11:00,
2013-08-26 02:16:00,49.5,49.5,29.93,WNW,296,1.0,2.0,100,0.00,,,0.00,Wunderground v.1.15,2013-08-26 09:16:00,
2013-08-26 02:22:00,49.6,49.6,29.93,WNW,296,1.0,2.0,100,0.00,,,0.00,Wunderground v.1.15,2013-08-26 09:22:00,
2013-08-26 02:28:00,49.7,49.7,29.93,WNW,296,1.0,4.0,100,0.00,,,0.00,Wunderground v.1.15,2013-08-26 09:28:00,
2013-08-26 02:34:00,49.6,49.6,29.93,WNW,296,2.0,2.0,100,0.00,,,0.00,Wunderground v.1.15,2013-08-26 09:34:00,
2013-08-26 02:40:00,49.5,49.5,29.93,WNW,296,2.0,2.0,100,0.00,,,0.00,Wunderground v.1.15,2013-08-26 09:40:00,
2013-08-26 02:46:00,49.5,49.5,29.93,WNW,296,3.0,4.0,100,0.00,,,0.00,Wunderground v.1.15,2013-08-26 09:46:00,
2013-08-26 02:52:00,49.6,49.6,29.93,WNW,296,3.0,4.0,100,0.00,,,0.00,Wunderground v.1.15,2013-08-26 09:52:00,
2013-08-26 02:57:00,49.7,49.7,29.92,WNW,296,2.0,4.0,100,0.00,,,0.00,Wunderground v.1.15,2013-08-26 09:57:00,
2013-08-26 03:03:00,49.7,49.7,29.92,WNW,296,2.0,4.0,100,0.00,,,0.00,Wunderground v.1.15,2013-08-26 10:03:00,
2013-08-26 03:08:00,49.6,49.6,29.92,WNW,296,2.0,4.0,100,0.00,,,0.00,Wunderground v.1.15,2013-08-26 10:08:00,
2013-08-26 03:14:00,49.4,49.4,29.92,WNW,296,2.0,2.0,100,0.00,,,0.00,Wunderground v.1.15,2013-08-26 10:14:00,
2013-08-26 03:20:00,49.4,49.4,29.92,WNW,296,2.0,2.0,100,0.00,,,0.00,Wunderground v.1.15,2013-08-26 10:20:00,
2013-08-26 03:26:00,49.4,49.4,29.92,WNW,296,1.0,2.0,100,0.00,,,0.00,Wunderground v.1.15,2013-08-26 10:26:00,
2013-08-26 03:32:00,49.4,49.4,29.92,WNW,296,1.0,2.0,100,0.00,,,0.00,Wunderground v.1.15,2013-08-26 10:32:00,
2013-08-26 03:37:00,49.3,49.3,29.93,WNW,296,1.0,2.0,100,0.00,,,0.00,Wunderground v.1.15,2013-08-26 10:37:00,
2013-08-26 03:43:00,49.3,49.3,29.93,WNW,296,0.0,2.0,100,0.00,,,0.00,Wunderground v.1.15,2013-08-26 10:43:00,
2013-08-26 03:49:00,49.2,49.2,29.92,WNW,296,0.0,2.0,100,0.00,,,0.00,Wunderground v.1.15,2013-08-26 10:49:00,
2013-08-26 03:55:00,49.1,49.1,29.92,WNW,296,0.0,2.0,100,0.00,,,0.00,Wunderground v.1.15,2013-08-26 10:55:00,
2013-08-26 04:01:00,49.0,49.0,29.92,WNW,296,1.0,2.0,100,0.00,,,0.00,Wunderground v.1.15,2013-08-26 11:01:00,
2013-08-26 04:07:00,48.9,48.9,29.92,WNW,296,1.0,2.0,100,0.00,,,0.00,Wunderground v.1.15,2013-08-26 11:07:00,
2013-08-26 04:13:00,48.8,48.8,29.92,WNW,296,0.0,2.0,100,0.00,,,0.00,Wunderground v.1.15,2013-08-26 11:13:00,
2013-08-26 04:18:00,48.6,48.6,29.92,WNW,296,0.0,2.0,100,0.00,,,0.00,Wunderground v.1.15,2013-08-26 11:18:00,
2013-08-26 04:24:00,48.6,48.6,29.92,WNW,296,0.0,2.0,100,0.00,,,0.00,Wunderground v.1.15,2013-08-26 11:24:00,
2013-08-26 04:30:00,48.4,48.4,29.92,WNW,296,0.0,2.0,100,0.00,,,0.00,Wunderground v.1.15,2013-08-26 11:30:00,
2013-08-26 04:36:00,48.3,48.3,29.92,WNW,296,0.0,2.0,100,0.00,,,0.00,Wunderground v.1.15,2013-08-26 11:36:00,
2013-08-26 04:42:00,48.2,48.2,29.92,WNW,296,0.0,2.0,100,0.00,,,0.00,Wunderground v.1.15,2013-08-26 11:42:00,
2013-08-26 04:48:00,47.8,47.8,29.92,WNW,296,0.0,2.0,100,0.00,,,0.00,Wunderground v.1.15,2013-08-26 11:48:00,
2013-08-26 04:54:00,47.6,47.6,29.92,WNW,296,0.0,2.0,100,0.00,,,0.00,Wunderground v.1.15,2013-08-26 11:54:00,
2013-08-26 04:59:00,47.5,47.5,29.92,WNW,296,0.0,2.0,100,0.00,,,0.00,Wunderground v.1.15,2013-08-26 11:59:00,
2013-08-26 05:05:00,47.3,47.3,29.92,WNW,296,0.0,2.0,100,0.00,,,0.00,Wunderground v.1.15,2013-08-26 12:05:00,
2013-08-26 05:11:00,46.9,46.9,29.92,WNW,296,1.0,2.0,100,0.00,,,0.00,Wunderground v.1.15,2013-08-26 12:11:00,
2013-08-26 05:17:00,46.7,46.7,29.92,WNW,296,1.0,2.0,100,0.00,,,0.00,Wunderground v.1.15,2013-08-26 12:17:00,
2013-08-26 05:23:00,46.7,46.7,29.92,WNW,296,1.0,2.0,100,0.00,,,0.01,Wunderground v.1.15,2013-08-26 12:23:00,
2013-08-26 05:29:00,46.8,46.8,29.92,WNW,296,1.0,2.0,100,0.00,,,0.01,Wunderground v.1.15,2013-08-26 12:29:00,
2013-08-26 05:35:00,47.0,47.0,29.92,WNW,296,1.0,2.0,100,0.00,,,0.01,Wunderground v.1.15,2013-08-26 12:35:00,
2013-08-26 05:41:00,47.2,47.2,29.92,WNW,296,1.0,2.0,100,0.00,,,0.01,Wunderground v.1.15,2013-08-26 12:41:00,
2013-08-26 05:47:00,47.1,47.1,29.93,WNW,296,1.0,2.0,100,0.00,,,0.01,Wunderground v.1.15,2013-08-26 12:47:00,
2013-08-26 05:52:00,47.0,47.0,29.93,WNW,296,1.0,2.0,100,0.00,,,0.01,Wunderground v.1.15,2013-08-26 12:52:00,
2013-08-26 05:58:00,47.0,47.0,29.93,WNW,296,1.0,2.0,100,0.00,,,0.01,Wunderground v.1.15,2013-08-26 12:58:00,
2013-08-26 06:04:00,46.8,46.8,29.93,WNW,296,1.0,2.0,100,0.00,,,0.01,Wunderground v.1.15,2013-08-26 13:04:00,
2013-08-26 06:10:00,46.8,46.8,29.93,WNW,296,1.0,2.0,100,0.00,,,0.01,Wunderground v.1.15,2013-08-26 13:10:00,
2013-08-26 06:16:00,46.7,46.7,29.93,WNW,296,0.0,2.0,100,0.00,,,0.01,Wunderground v.1.15,2013-08-26 13:16:00,
2013-08-26 06:21:00,46.6,46.6,29.93,WNW,296,0.0,2.0,100,0.00,,,0.01,Wunderground v.1.15,2013-08-26 13:21:00,
2013-08-26 06:27:00,46.5,46.5,29.93,WNW,296,0.0,2.0,100,0.00,,,0.01,Wunderground v.1.15,2013-08-26 13:27:00,
2013-08-26 06:33:00,46.4,46.4,29.93,WNW,296,0.0,2.0,100,0.00,,,0.01,Wunderground v.1.15,2013-08-26 13:33:00,
2013-08-26 06:39:00,46.3,46.3,29.93,WNW,296,0.0,2.0,100,0.00,,,0.01,Wunderground v.1.15,2013-08-26 13:39:00,
2013-08-26 06:45:00,46.1,46.1,29.93,WNW,296,0.0,2.0,100,0.00,,,0.01,Wunderground v.1.15,2013-08-26 13:45:00,
2013-08-26 06:50:00,45.9,45.9,29.93,WNW,296,0.0,2.0,100,0.00,,,0.01,Wunderground v.1.15,2013-08-26 13:50:00,
2013-08-26 06:56:00,45.8,45.8,29.93,WNW,296,1.0,2.0,100,0.00,,,0.01,Wunderground v.1.15,2013-08-26 13:56:00,
2013-08-26 07:02:00,45.7,45.7,29.93,WNW,296,0.0,2.0,100,0.00,,,0.01,Wunderground v.1.15,2013-08-26 14:02:00,
2013-08-26 07:08:00,45.7,45.7,29.93,WNW,296,0.0,2.0,100,0.00,,,0.01,Wunderground v.1.15,2013-08-26 14:08:00,
2013-08-26 07:14:00,45.8,45.8,29.93,WNW,296,0.0,2.0,100,0.00,,,0.01,Wunderground v.1.15,2013-08-26 14:14:00,
2013-08-26 07:20:00,46.0,46.0,29.93,WNW,296,1.0,2.0,100,0.00,,,0.01,Wunderground v.1.15,2013-08-26 14:20:00,
2013-08-26 07:26:00,46.3,46.3,29.93,WNW,296,1.0,2.0,100,0.00,,,0.01,Wunderground v.1.15,2013-08-26 14:26:00,
2013-08-26 07:31:00,46.6,46.6,29.93,WNW,296,1.0,2.0,100,0.00,,,0.01,Wunderground v.1.15,2013-08-26 14:31:00,
2013-08-26 07:37:00,46.8,46.8,29.93,WNW,296,2.0,3.0,100,0.00,,,0.01,Wunderground v.1.15,2013-08-26 14:37:00,
2013-08-26 07:43:00,46.9,46.9,29.93,WNW,296,2.0,3.0,100,0.00,,,0.01,Wunderground v.1.15,2013-08-26 14:43:00,
2013-08-26 07:49:00,47.1,47.1,29.93,WNW,296,2.0,5.0,100,0.00,,,0.01,Wunderground v.1.15,2013-08-26 14:49:00,
2013-08-26 07:55:00,47.2,47.2,29.93,WNW,296,4.0,6.0,100,0.00,,,0.01,Wunderground v.1.15,2013-08-26 14:55:00,
2013-08-26 08:01:00,47.2,47.2,29.93,WNW,296,4.0,5.0,100,0.00,,,0.01,Wunderground v.1.15,2013-08-26 15:01:00,
2013-08-26 08:07:00,47.3,47.3,29.93,WNW,296,4.0,5.0,100,0.00,,,0.01,Wunderground v.1.15,2013-08-26 15:07:00,
2013-08-26 08:13:00,47.4,47.4,29.93,WNW,296,4.0,4.0,100,0.00,,,0.01,Wunderground v.1.15,2013-08-26 15:13:00,
2013-08-26 08:18:00,47.5,47.5,29.93,WNW,296,4.0,6.0,100,0.00,,,0.01,Wunderground v.1.15,2013-08-26 15:18:00,
2013-08-26 08:24:00,47.6,47.6,29.93,WNW,296,5.0,8.0,100,0.00,,,0.01,Wunderground v.1.15,2013-08-26 15:24:00,
2013-08-26 08:30:00,47.9,47.9,29.93,WNW,296,6.0,6.0,100,0.00,,,0.01,Wunderground v.1.15,2013-08-26 15:30:00,
2013-08-26 08:36:00,48.1,48.1,29.93,WNW,296,5.0,6.0,100,0.00,,,0.01,Wunderground v.1.15,2013-08-26 15:36:00,
2013-08-26 08:42:00,48.4,48.4,29.93,WNW,296,5.0,6.0,100,0.00,,,0.01,Wunderground v.1.15,2013-08-26 15:42:00,
2013-08-26 08:47:00,48.4,48.4,29.93,WNW,296,5.0,8.0,100,0.00,,,0.01,Wunderground v.1.15,2013-08-26 15:47:00,
2013-08-26 08:53:00,48.5,48.5,29.93,WNW,296,5.0,7.0,100,0.00,,,0.01,Wunderground v.1.15,2013-08-26 15:53:00,
2013-08-26 08:58:00,48.9,48.9,29.93,WNW,296,5.0,7.0,100,0.00,,,0.01,Wunderground v.1.15,2013-08-26 15:58:00,
2013-08-26 09:04:00,49.4,49.4,29.93,WNW,296,4.0,5.0,100,0.00,,,0.01,Wunderground v.1.15,2013-08-26 16:04:00,
2013-08-26 09:10:00,49.7,49.7,29.93,WNW,296,4.0,4.0,100,0.00,,,0.01,Wunderground v.1.15,2013-08-26 16:10:00,
2013-08-26 09:16:00,50.0,50.0,29.93,WNW,296,4.0,5.0,100,0.00,,,0.01,Wunderground v.1.15,2013-08-26 16:16:00,
2013-08-26 09:22:00,50.2,50.2,29.93,WNW,296,5.0,5.0,100,0.00,,,0.01,Wunderground v.1.15,2013-08-26 16:22:00,
2013-08-26 09:28:00,50.5,50.5,29.93,West,279,5.0,8.0,100,0.00,,,0.01,Wunderground v.1.15,2013-08-26 16:28:00,
2013-08-26 09:33:00,50.8,50.8,29.93,SW,228,5.0,9.0,100,0.00,,,0.01,Wunderground v.1.15,2013-08-26 16:33:00,
2013-08-26 09:39:00,50.8,50.8,29.94,SSW,212,6.0,9.0,100,0.00,,,0.01,Wunderground v.1.15,2013-08-26 16:39:00,
2013-08-26 09:45:00,51.2,51.2,29.93,SSW,212,5.0,7.0,100,0.00,,,0.01,Wunderground v.1.15,2013-08-26 16:45:00,
2013-08-26 09:51:00,51.1,51.1,29.93,SSW,205,6.0,7.0,100,0.00,,,0.01,Wunderground v.1.15,2013-08-26 16:51:00,
2013-08-26 09:57:00,51.1,51.1,29.93,SSW,204,7.0,7.0,100,0.00,,,0.01,Wunderground v.1.15,2013-08-26 16:57:00,
2013-08-26 10:03:00,51.2,51.2,29.93,SSW,200,7.0,8.0,100,0.00,,,0.01,Wunderground v.1.15,2013-08-26 17:03:00,
2013-08-26 10:09:00,51.1,51.1,29.93,SSW,199,7.0,9.0,100,0.00,,,0.01,Wunderground v.1.15,2013-08-26 17:09:00,
2013-08-26 10:14:00,51.3,51.3,29.93,SSW,199,7.0,10.0,100,0.00,,,0.01,Wunderground v.1.15,2013-08-26 17:14:00,
2013-08-26 10:20:00,51.5,51.5,29.93,SSW,196,7.0,7.0,100,0.00,,,0.01,Wunderground v.1.15,2013-08-26 17:20:00,
2013-08-26 10:26:00,51.7,51.7,29.93,SSW,202,6.0,7.0,100,0.00,,,0.01,Wunderground v.1.15,2013-08-26 17:26:00,
2013-08-26 10:32:00,51.8,51.8,29.93,SSW,207,6.0,7.0,100,0.00,,,0.01,Wunderground v.1.15,2013-08-26 17:32:00,
2013-08-26 10:38:00,52.0,52.0,29.93,SSW,205,7.0,12.0,100,0.00,,,0.01,Wunderground v.1.15,2013-08-26 17:38:00,
2013-08-26 10:43:00,52.3,52.3,29.93,SSW,199,7.0,10.0,100,0.00,,,0.01,Wunderground v.1.15,2013-08-26 17:43:00,
2013-08-26 10:49:00,52.6,52.6,29.93,SSW,200,8.0,13.0,100,0.00,,,0.01,Wunderground v.1.15,2013-08-26 17:49:00,
2013-08-26 10:54:00,53.4,53.4,29.93,SSW,196,8.0,8.0,100,0.00,,,0.01,Wunderground v.1.15,2013-08-26 17:54:00,
2013-08-26 11:00:00,53.4,53.4,29.94,South,184,9.0,9.0,100,0.00,,,0.01,Wunderground v.1.15,2013-08-26 18:00:00,
2013-08-26 11:06:00,54.1,54.1,29.94,South,190,8.0,9.0,100,0.00,,,0.01,Wunderground v.1.15,2013-08-26 18:06:00,
2013-08-26 11:12:00,54.4,54.1,29.94,South,188,7.0,13.0,99,0.00,,,0.01,Wunderground v.1.15,2013-08-26 18:12:00,
2013-08-26 11:18:00,55.0,54.4,29.94,SSW,207,9.0,16.0,98,0.00,,,0.01,Wunderground v.1.15,2013-08-26 18:18:00,
2013-08-26 11:23:00,55.2,54.1,29.94,SSW,205,12.0,15.0,96,0.00,,,0.01,Wunderground v.1.15,2013-08-26 18:23:00,
2013-08-26 11:29:00,55.5,54.1,29.94,SSW,205,12.0,15.0,95,0.00,,,0.01,Wunderground v.1.15,2013-08-26 18:29:00,
2013-08-26 11:35:00,56.3,54.6,29.93,SSW,205,11.0,15.0,94,0.00,,,0.01,Wunderground v.1.15,2013-08-26 18:35:00,
2013-08-26 11:41:00,56.5,54.8,29.94,SW,223,10.0,11.0,94,0.00,,,0.01,Wunderground v.1.15,2013-08-26 18:41:00,
2013-08-26 11:47:00,56.3,54.0,29.94,SSW,195,8.0,11.0,92,0.00,,,0.01,Wunderground v.1.15,2013-08-26 18:47:00,
2013-08-26 11:53:00,55.9,53.6,29.93,SSW,210,9.0,13.0,92,0.00,,,0.01,Wunderground v.1.15,2013-08-26 18:53:00,
2013-08-26 11:58:00,56.3,54.0,29.94,SSW,194,10.0,13.0,92,0.00,,,0.01,Wunderground v.1.15,2013-08-26 18:58:00,
2013-08-26 12:03:00,56.5,53.9,29.93,South,183,11.0,13.0,91,0.00,,,0.01,Wunderground v.1.15,2013-08-26 19:03:00,
2013-08-26 12:09:00,57.2,53.7,29.93,SSW,208,12.0,17.0,88,0.00,,,0.01,Wunderground v.1.15,2013-08-26 19:09:00,
2013-08-26 12:15:00,57.8,54.3,29.93,SSW,200,12.0,14.0,88,0.00,,,0.01,Wunderground v.1.15,2013-08-26 19:15:00,
2013-08-26 12:21:00,57.9,54.4,29.93,SSW,198,10.0,10.0,88,0.00,,,0.01,Wunderground v.1.15,2013-08-26 19:21:00,
2013-08-26 12:27:00,58.1,53.9,29.93,South,189,10.0,13.0,86,0.00,,,0.01,Wunderground v.1.15,2013-08-26 19:27:00,
2013-08-26 12:32:00,58.4,53.9,29.93,SSW,195,12.0,12.0,85,0.00,,,0.01,Wunderground v.1.15,2013-08-26 19:32:00,
2013-08-26 12:38:00,58.3,53.5,29.93,South,175,12.0,16.0,84,0.00,,,0.01,Wunderground v.1.15,2013-08-26 19:38:00,
2013-08-26 12:44:00,58.5,53.7,29.94,South,175,12.0,13.0,84,0.00,,,0.01,Wunderground v.1.15,2013-08-26 19:44:00,
2013-08-26 12:50:00,58.4,53.6,29.94,SSW,200,11.0,15.0,84,0.00,,,0.01,Wunderground v.1.15,2013-08-26 19:50:00,
2013-08-26 12:56:00,59.4,54.2,29.93,South,182,13.0,19.0,83,0.00,,,0.01,Wunderground v.1.15,2013-08-26 19:56:00,
2013-08-26 13:02:00,60.2,54.0,29.94,SSW,202,12.0,14.0,80,0.00,,,0.01,Wunderground v.1.15,2013-08-26 20:02:00,
2013-08-26 13:07:00,59.4,53.9,29.94,SSW,210,11.0,14.0,82,0.00,,,0.01,Wunderground v.1.15,2013-08-26 20:07:00,
2013-08-26 13:13:00,59.7,53.9,29.93,SSW,202,9.0,10.0,81,0.00,,,0.01,Wunderground v.1.15,2013-08-26 20:13:00,
2013-08-26 13:18:00,59.3,53.5,29.94,SSW,201,10.0,15.0,81,0.00,,,0.01,Wunderground v.1.15,2013-08-26 20:18:00,
2013-08-26 13:24:00,59.5,53.7,29.94,SW,217,10.0,14.0,81,0.00,,,0.01,Wunderground v.1.15,2013-08-26 20:24:00,
2013-08-26 13:30:00,59.3,53.1,29.94,SW,218,12.0,15.0,80,0.00,,,0.01,Wunderground v.1.15,2013-08-26 20:30:00,
2013-08-26 13:36:00,60.0,53.8,29.94,SW,215,12.0,19.0,80,0.00,,,0.01,Wunderground v.1.15,2013-08-26 20:36:00,
2013-08-26 13:41:00,60.4,53.9,29.94,SSW,213,11.0,13.0,79,0.00,,,0.01,Wunderground v.1.15,2013-08-26 20:41:00,
2013-08-26 13:47:00,59.4,52.9,29.94,South,188,10.0,15.0,79,0.00,,,0.01,Wunderground v.1.15,2013-08-26 20:47:00,
2013-08-26 13:53:00,59.2,53.4,29.94,SSW,205,10.0,15.0,81,0.00,,,0.01,Wunderground v.1.15,2013-08-26 20:53:00,
2013-08-26 13:59:00,59.1,52.9,29.94,SSW,206,12.0,21.0,80,0.00,,,0.01,Wunderground v.1.15,2013-08-26 20:59:00,
2013-08-26 14:05:00,59.5,53.7,29.94,SSW,202,13.0,13.0,81,0.00,,,0.01,Wunderground v.1.15,2013-08-26 21:05:00,
2013-08-26 14:11:00,59.6,53.4,29.94,SSW,197,10.0,15.0,80,0.00,,,0.01,Wunderground v.1.15,2013-08-26 21:11:00,
2013-08-26 14:16:00,59.3,53.1,29.94,SSW,201,11.0,15.0,80,0.00,,,0.01,Wunderground v.1.15,2013-08-26 21:16:00,
2013-08-26 14:22:00,59.4,52.9,29.94,SSW,193,11.0,11.0,79,0.00,,,0.01,Wunderground v.1.15,2013-08-26 21:22:00,
2013-08-26 14:28:00,58.9,53.1,29.94,SSW,213,12.0,17.0,81,0.00,,,0.01,Wunderground v.1.15,2013-08-26 21:28:00,
2013-08-26 14:34:00,59.0,52.8,29.94,SSW,209,12.0,18.0,80,0.00,,,0.01,Wunderground v.1.15,2013-08-26 21:34:00,
2013-08-26 14:40:00,59.4,53.2,29.94,SSW,196,13.0,13.0,80,0.00,,,0.01,Wunderground v.1.15,2013-08-26 21:40:00,
2013-08-26 14:46:00,60.2,53.7,29.94,SSW,201,13.0,18.0,79,0.00,,,0.01,Wunderground v.1.15,2013-08-26 21:46:00,
2013-08-26 14:51:00,61.2,53.2,29.94,SW,215,12.0,12.0,75,0.00,,,0.01,Wunderground v.1.15,2013-08-26 21:51:00,
2013-08-26 14:57:00,61.2,52.8,29.94,SSW,211,13.0,19.0,74,0.00,,,0.01,Wunderground v.1.15,2013-08-26 21:57:00,
2013-08-26 15:03:00,62.4,52.9,29.93,SSW,211,14.0,19.0,71,0.00,,,0.01,Wunderground v.1.15,2013-08-26 22:03:00,
2013-08-26 15:09:00,63.5,52.7,29.94,SSW,199,14.0,20.0,68,0.00,,,0.01,Wunderground v.1.15,2013-08-26 22:09:00,
2013-08-26 15:15:00,62.6,52.3,29.93,SSW,202,13.0,21.0,69,0.00,,,0.01,Wunderground v.1.15,2013-08-26 22:15:00,
2013-08-26 15:21:00,62.4,52.1,29.94,South,184,15.0,15.0,69,0.00,,,0.01,Wunderground v.1.15,2013-08-26 22:21:00,
2013-08-26 15:27:00,62.4,52.5,29.93,SSE,165,15.0,20.0,70,0.00,,,0.01,Wunderground v.1.15,2013-08-26 22:27:00,
2013-08-26 15:33:00,62.5,51.8,29.94,SSW,202,14.0,19.0,68,0.00,,,0.01,Wunderground v.1.15,2013-08-26 22:33:00,
2013-08-26 15:38:00,62.0,52.1,29.94,SSW,200,15.0,19.0,70,0.00,,,0.01,Wunderground v.1.15,2013-08-26 22:38:00,
2013-08-26 15:44:00,61.8,52.3,29.94,SSW,195,13.0,16.0,71,0.00,,,0.01,Wunderground v.1.15,2013-08-26 22:44:00,
2013-08-26 15:50:00,61.5,52.0,29.93,SSW,212,13.0,13.0,71,0.00,,,0.01,Wunderground v.1.15,2013-08-26 22:50:00,
2013-08-26 15:56:00,62.3,52.4,29.94,SSW,204,13.0,17.0,70,0.00,,,0.01,Wunderground v.1.15,2013-08-26 22:56:00,
2013-08-26 16:02:00,62.7,52.0,29.93,SSW,200,12.0,20.0,68,0.00,,,0.01,Wunderground v.1.15,2013-08-26 23:02:00,
2013-08-26 16:08:00,62.5,52.2,29.94,SW,215,14.0,22.0,69,0.00,,,0.01,Wunderground v.1.15,2013-08-26 23:08:00,
2013-08-26 16:13:00,61.6,52.1,29.94,SSW,203,15.0,22.0,71,0.00,,,0.01,Wunderground v.1.15,2013-08-26 23:13:00,
2013-08-26 16:19:00,61.1,52.7,29.93,South,184,14.0,22.0,74,0.00,,,0.01,Wunderground v.1.15,2013-08-26 23:19:00,
2013-08-26 16:24:00,61.6,52.5,29.94,SSW,195,14.0,14.0,72,0.00,,,0.01,Wunderground v.1.15,2013-08-26 23:24:00,
2013-08-26 16:30:00,61.8,52.7,29.94,South,188,15.0,15.0,72,0.00,,,0.01,Wunderground v.1.15,2013-08-26 23:30:00,
2013-08-26 16:36:00,62.4,52.9,29.94,South,191,15.0,21.0,71,0.00,,,0.01,Wunderground v.1.15,2013-08-26 23:36:00,
2013-08-26 16:42:00,61.7,52.6,29.93,SSW,198,14.0,18.0,72,0.00,,,0.01,Wunderground v.1.15,2013-08-26 23:42:00,
2013-08-26 16:48:00,60.2,53.0,29.94,SSW,199,13.0,18.0,77,0.00,,,0.01,Wunderground v.1.15,2013-08-26 23:48:00,
2013-08-26 16:54:00,59.4,52.9,29.94,SSW,194,14.0,18.0,79,0.00,,,0.01,Wunderground v.1.15,2013-08-26 23:54:00,
2013-08-26 17:00:00,59.4,53.6,29.94,SSW,209,14.0,14.0,81,0.00,,,0.01,Wunderground v.1.15,2013-08-27 00:00:00,
2013-08-26 17:05:00,59.4,53.6,29.94,SSW,198,14.0,17.0,81,0.00,,,0.01,Wunderground v.1.15,2013-08-27 00:05:00,
2013-08-26 17:11:00,59.8,54.0,29.94,SSW,197,13.0,16.0,81,0.00,,,0.01,Wunderground v.1.15,2013-08-27 00:11:00,
2013-08-26 17:17:00,60.0,53.8,29.94,SSW,200,13.0,19.0,80,0.00,,,0.01,Wunderground v.1.15,2013-08-27 00:17:00,
2013-08-26 17:23:00,60.1,53.6,29.93,SSW,199,14.0,17.0,79,0.00,,,0.01,Wunderground v.1.15,2013-08-27 00:23:00,
2013-08-26 17:29:00,60.7,53.8,29.93,SSW,202,16.0,23.0,78,0.00,,,0.01,Wunderground v.1.15,2013-08-27 00:29:00,
2013-08-26 17:35:00,60.4,53.5,29.94,SSW,198,15.0,16.0,78,0.00,,,0.01,Wunderground v.1.15,2013-08-27 00:35:00,
2013-08-26 17:41:00,62.3,53.9,29.94,South,175,16.0,16.0,74,0.00,,,0.01,Wunderground v.1.15,2013-08-27 00:41:00,
2013-08-26 17:46:00,64.3,54.3,29.94,SSW,201,16.0,19.0,70,0.00,,,0.01,Wunderground v.1.15,2013-08-27 00:46:00,
2013-08-26 17:52:00,64.2,53.4,29.93,SSW,201,14.0,15.0,68,0.00,,,0.01,Wunderground v.1.15,2013-08-27 00:52:00,
2013-08-26 17:58:00,63.5,53.1,29.94,SSW,197,12.0,17.0,69,0.00,,,0.01,Wunderground v.1.15,2013-08-27 00:58:00,
2013-08-26 18:04:00,61.4,52.7,29.94,SSW,207,12.0,15.0,73,0.00,,,0.01,Wunderground v.1.15,2013-08-27 01:04:00,
2013-08-26 18:10:00,60.5,52.9,29.94,SSW,198,11.0,11.0,76,0.00,,,0.01,Wunderground v.1.15,2013-08-27 01:10:00,
2013-08-26 18:16:00,60.1,52.9,29.94,SSW,197,12.0,15.0,77,0.00,,,0.01,Wunderground v.1.15,2013-08-27 01:16:00,
2013-08-26 18:21:00,59.7,52.5,29.94,SSW,208,11.0,11.0,77,0.00,,,0.01,Wunderground v.1.15,2013-08-27 01:21:00,
2013-08-26 18:27:00,58.1,51.6,29.94,SSW,202,10.0,13.0,79,0.00,,,0.01,Wunderground v.1.15,2013-08-27 01:27:00,
2013-08-26 18:33:00,58.5,52.4,29.94,SW,217,10.0,12.0,80,0.00,,,0.01,Wunderground v.1.15,2013-08-27 01:33:00,
2013-08-26 18:38:00,58.0,51.9,29.94,SSW,208,10.0,12.0,80,0.00,,,0.01,Wunderground v.1.15,2013-08-27 01:38:00,
2013-08-26 18:43:00,58.4,52.6,29.94,SSW,194,10.0,12.0,81,0.00,,,0.01,Wunderground v.1.15,2013-08-27 01:43:00,
2013-08-26 18:49:00,58.6,53.1,29.94,SSW,198,11.0,13.0,82,0.00,,,0.01,Wunderground v.1.15,2013-08-27 01:49:00,
2013-08-26 18:54:00,59.7,54.5,29.94,SSW,206,12.0,15.0,83,0.00,,,0.01,Wunderground v.1.15,2013-08-27 01:54:00,
2013-08-26 19:00:00,60.8,55.6,29.94,South,180,12.0,12.0,83,0.00,,,0.01,Wunderground v.1.15,2013-08-27 02:00:00,
2013-08-26 19:06:00,61.1,55.9,29.94,SSW,198,14.0,21.0,83,0.00,,,0.01,Wunderground v.1.15,2013-08-27 02:06:00,
2013-08-26 19:12:00,61.0,55.8,29.94,SSW,199,14.0,18.0,83,0.00,,,0.01,Wunderground v.1.15,2013-08-27 02:12:00,
2013-08-26 19:17:00,60.4,55.2,29.93,South,190,14.0,19.0,83,0.00,,,0.01,Wunderground v.1.15,2013-08-27 02:17:00,
2013-08-26 19:23:00,58.7,53.2,29.94,SSW,197,11.0,13.0,82,0.00,,,0.01,Wunderground v.1.15,2013-08-27 02:23:00,
2013-08-26 19:29:00,57.5,53.3,29.94,SSW,194,10.0,16.0,86,0.00,,,0.01,Wunderground v.1.15,2013-08-27 02:29:00,
2013-08-26 19:35:00,57.6,54.4,29.94,SSW,209,10.0,15.0,89,0.00,,,0.01,Wunderground v.1.15,2013-08-27 02:35:00,
2013-08-26 19:41:00,57.2,54.0,29.94,SSW,209,10.0,12.0,89,0.00,,,0.01,Wunderground v.1.15,2013-08-27 02:41:00,
2013-08-26 19:47:00,57.0,54.1,29.94,South,189,10.0,12.0,90,0.00,,,0.01,Wunderground v.1.15,2013-08-27 02:47:00,
2013-08-26 19:52:00,57.4,54.5,29.93,South,186,9.0,9.0,90,0.00,,,0.01,Wunderground v.1.15,2013-08-27 02:52:00,
2013-08-26 19:58:00,57.2,54.0,29.93,South,178,7.0,12.0,89,0.00,,,0.01,Wunderground v.1.15,2013-08-27 02:58:00,
2013-08-26 20:04:00,57.4,54.5,29.94,South,175,8.0,12.0,90,0.00,,,0.01,Wunderground v.1.15,2013-08-27 03:04:00,
2013-08-26 20:09:00,57.9,55.3,29.94,South,177,8.0,12.0,91,0.00,,,0.01,Wunderground v.1.15,2013-08-27 03:09:00,
2013-08-26 20:15:00,58.3,55.4,29.94,SSE,157,5.0,7.0,90,0.00,,,0.01,Wunderground v.1.15,2013-08-27 03:15:00,
2013-08-26 20:20:00,58.8,55.9,29.94,South,178,6.0,7.0,90,0.00,,,0.01,Wunderground v.1.15,2013-08-27 03:20:00,
2013-08-26 20:26:00,59.1,56.2,29.94,SSW,201,7.0,9.0,90,0.00,,,0.01,Wunderground v.1.15,2013-08-27 03:26:00,
2013-08-26 20:32:00,59.4,56.5,29.94,South,181,8.0,11.0,90,0.00,,,0.01,Wunderground v.1.15,2013-08-27 03:32:00,
2013-08-26 20:38:00,59.2,55.6,29.94,SSE,163,7.0,11.0,88,0.00,,,0.01,Wunderground v.1.15,2013-08-27 03:38:00,
2013-08-26 20:44:00,58.0,54.8,29.95,South,180,6.0,8.0,89,0.00,,,0.01,Wunderground v.1.15,2013-08-27 03:44:00,
2013-08-26 20:50:00,57.8,54.9,29.95,SSW,198,5.0,6.0,90,0.00,,,0.01,Wunderground v.1.15,2013-08-27 03:50:00,
2013-08-26 20:55:00,57.9,55.0,29.95,South,186,5.0,8.0,90,0.00,,,0.01,Wunderground v.1.15,2013-08-27 03:55:00,
2013-08-26 21:01:00,58.2,55.3,29.95,South,180,6.0,9.0,90,0.00,,,0.01,Wunderground v.1.15,2013-08-27 04:01:00,
2013-08-26 21:02:00,58.3,55.4,29.95,South,176,6.0,9.0,90,0.00,,,0.01,Wunderground v.1.15,2013-08-27 04:02:00,
2013-08-26 21:03:00,58.3,55.4,29.95,South,181,7.0,9.0,90,0.00,,,0.01,Wunderground v.1.15,2013-08-27 04:03:00,
2013-08-26 21:04:00,58.4,55.5,29.95,South,189,7.0,9.0,90,0.00,,,0.01,Wunderground v.1.15,2013-08-27 04:04:00,
2013-08-26 21:07:00,58.6,55.7,29.95,South,173,7.0,9.0,90,0.00,,,0.01,Wunderground v.1.15,2013-08-27 04:07:00,
2013-08-26 21:13:00,59.0,56.1,29.95,South,180,6.0,7.0,90,0.00,,,0.01,Wunderground v.1.15,2013-08-27 04:13:00,
2013-08-26 21:18:00,59.4,56.5,29.95,SSE,165,5.0,7.0,90,0.00,,,0.01,Wunderground v.1.15,2013-08-27 04:18:00,
2013-08-26 21:24:00,60.0,57.1,29.95,South,175,4.0,5.0,90,0.00,,,0.01,Wunderground v.1.15,2013-08-27 04:24:00,
2013-08-26 21:29:00,60.5,57.6,29.95,SSE,162,4.0,8.0,90,0.00,,,0.01,Wunderground v.1.15,2013-08-27 04:29:00,
2013-08-26 21:35:00,61.0,57.7,29.95,SSE,165,5.0,10.0,89,0.00,,,0.01,Wunderground v.1.15,2013-08-27 04:35:00,
2013-08-26 21:41:00,61.4,58.1,29.95,South,182,5.0,5.0,89,0.00,,,0.01,Wunderground v.1.15,2013-08-27 04:41:00,
2013-08-26 21:47:00,61.4,57.8,29.95,South,182,4.0,5.0,88,0.00,,,0.01,Wunderground v.1.15,2013-08-27 04:47:00,
2013-08-26 21:53:00,61.4,57.8,29.95,South,180,4.0,5.0,88,0.00,,,0.01,Wunderground v.1.15,2013-08-27 04:53:00,
2013-08-26 21:58:00,61.1,57.2,29.94,SSE,164,4.0,6.0,87,0.00,,,0.01,Wunderground v.1.15,2013-08-27 04:58:00,
2013-08-26 22:03:00,61.1,57.5,29.94,SSE,159,4.0,5.0,88,0.00,,,0.01,Wunderground v.1.15,2013-08-27 05:03:00,
2013-08-26 22:09:00,61.3,57.4,29.95,SW,232,4.0,10.0,87,0.00,,,0.01,Wunderground v.1.15,2013-08-27 05:09:00,
2013-08-26 22:15:00,58.5,54.0,29.95,SSW,207,5.0,6.0,85,0.00,,,0.01,Wunderground v.1.15,2013-08-27 05:15:00,
2013-08-26 22:21:00,57.9,54.4,29.95,SSW,194,5.0,7.0,88,0.00,,,0.01,Wunderground v.1.15,2013-08-27 05:21:00,
2013-08-26 22:27:00,58.1,54.9,29.95,South,190,5.0,8.0,89,0.00,,,0.01,Wunderground v.1.15,2013-08-27 05:27:00,
2013-08-26 22:33:00,58.3,55.1,29.95,South,182,6.0,7.0,89,0.00,,,0.01,Wunderground v.1.15,2013-08-27 05:33:00,
2013-08-26 22:38:00,58.5,55.6,29.94,South,178,5.0,7.0,90,0.00,,,0.01,Wunderground v.1.15,2013-08-27 05:38:00,
2013-08-26 22:44:00,58.7,55.5,29.94,South,188,5.0,8.0,89,0.00,,,0.01,Wunderground v.1.15,2013-08-27 05:44:00,
2013-08-26 22:50:00,58.8,55.6,29.94,South,189,4.0,5.0,89,0.00,,,0.01,Wunderground v.1.15,2013-08-27 05:50:00,
2013-08-26 22:56:00,58.6,55.4,29.94,South,189,4.0,7.0,89,0.00,,,0.01,Wunderground v.1.15,2013-08-27 05:56:00,
2013-08-26 23:02:00,58.0,54.8,29.94,South,181,5.0,8.0,89,0.00,,,0.01,Wunderground v.1.15,2013-08-27 06:02:00,
2013-08-26 23:07:00,58.0,55.1,29.94,South,169,5.0,8.0,90,0.00,,,0.01,Wunderground v.1.15,2013-08-27 06:07:00,
2013-08-26 23:13:00,58.4,55.5,29.94,South,187,4.0,6.0,90,0.00,,,0.01,Wunderground v.1.15,2013-08-27 06:13:00,
2013-08-26 23:18:00,58.9,56.3,29.94,South,182,4.0,6.0,91,0.00,,,0.01,Wunderground v.1.15,2013-08-27 06:18:00,
2013-08-26 23:24:00,58.8,55.9,29.94,SSW,196,4.0,7.0,90,0.00,,,0.01,Wunderground v.1.15,2013-08-27 06:24:00,
2013-08-26 23:30:00,58.3,55.4,29.94,South,190,5.0,5.0,90,0.00,,,0.01,Wunderground v.1.15,2013-08-27 06:30:00,
2013-08-26 23:35:00,58.0,55.1,29.94,SSE,164,5.0,7.0,90,0.00,,,0.01,Wunderground v.1.15,2013-08-27 06:35:00,
2013-08-26 23:41:00,58.0,55.1,29.94,South,185,5.0,6.0,90,0.00,,,0.01,Wunderground v.1.15,2013-08-27 06:41:00,
2013-08-26 23:47:00,57.9,55.0,29.94,SSE,167,5.0,7.0,90,0.00,,,0.01,Wunderground v.1.15,2013-08-27 06:47:00,
2013-08-26 23:53:00,57.8,54.6,29.94,SSW,192,5.0,7.0,89,0.00,,,0.01,Wunderground v.1.15,2013-08-27 06:53:00,
2013-08-26 23:59:00,57.6,54.1,29.94,South,178,6.0,7.0,88,0.00,,,0.01,Wunderground v.1.15,2013-08-27 06:59:00,